Vertical_Velocity
9 -2 6 8 -1 -4 1 2 1 8 3 3 4 3 4 -1 -0 -1 0 1 -0 -1 0 -0 -1 0 0 -0 0 -0 -1 -1 -1 2 -0 1 2 1 0 1 -1 -1 -0
1 -2 -1 6 -1 3 -2 -0 2 4 2 6 1 1 -0 0 -2 2 3 1 1 -1 -1 -0 1 1 0 0 0 0 0 -0 -0 1 -1 6 5 -1 0 2 0 -2 0
-4 1 1 1 1 -5 3 -2 2 -2 3 4 -0 3 2 4 3 3 -0 0 -1 -3 1 1 1 0 2 1 1 -1 2 1 -1 -1 -3 -1 5 3 -0 -0 1 2 2
1 -1 3 0 -1 5 -4 0 -2 -1 0 1 0 4 0 2 1 0 3 -1 1 1 0 0 1 -1 0 3 1 -1 -1 -2 1 -0 -3 -6 -2 2 6 3 2 -1 -0
-4 -5 1 0 -3 -0 2 -0 2 2 1 -0 2 2 4 2 3 2 1 -1 -2 -0 5 3 -2 0 -2 -1 1 -1 -3 -1 -2 1 -3 -2 -2 -1 -7 2 9 4 1
0 -2 -4 -1 2 -2 3 5 -1 1 3 -1 -0 5 4 1 0 -1 2 4 4 2 2 1 2 2 1 0 0 1 2 -1 -0 -1 1 -2 -4 1 -2 -4 -2 -0 2
-9 -8 -3 -3 -0 4 -1 1 4 -1 -2 -0 -1 -2 -2 -1 1 -1 0 3 2 -1 3 -2 2 3 2 3 2 0 -0 2 1 -2 -0 1 1 -1 -2 -4 -1 -3 -0
-2 -4 0 0 0 0 2 1 1 2 -0 -4 -3 -2 -1 -1 -0 0 -0 -0 -2 -1 -1 1 1 1 -0 -1 -0 2 2 4 2 2 0 1 -0 -0 -2 -5 -2 -4 -0
2 -0 3 3 -2 0 1 3 3 1 1 2 0 -1 -1 2 2 0 0 1 1 -0 -1 -4 -5 -1 -0 -1 -0 0 -2 -1 1 2 -0 1 2 -0 0 -0 -1 -7 -2
-2 -1 -0 -4 3 4 -0 0 3 1 1 1 1 2 1 0 1 -0 -1 -2 0 1 2 1 -1 -2 -1 -0 -2 -1 2 1 0 -0 -0 2 1 2 2 -0 -0 -2 -4
-2 -2 -3 -2 -6 2 2 -1 -0 -0 0 -0 2 2 3 2 1 2 0 0 1 1 2 2 1 -0 0 2 1 1 -0 -0 -1 -1 -0 -1 -1 -1 -1 -3 1 1 -3
-2 -1 -2 -1 -3 1 6 2 1 3 2 1 2 2 0 1 -0 1 1 1 2 1 1 1 1 2 1 2 0 -1 0 -0 -1 1 -2 -1 0 -1 -2 -1 -1 -2 -2
-1 -3 -2 -0 0 -1 4 1 1 2 3 -4 -3 -1 -0 2 -1 0 1 1 0 0 0 1 1 1 -0 1 2 0 -1 1 -3 -1 2 2 0 -1 -0 -2 -2 1 1
-2 -2 -0 2 -0 -2 1 2 1 2 1 -1 -3 -5 1 1 1 1 1 1 1 1 -0 -1 1 1 0 0 2 -0 -1 2 0 1 -1 0 -1 -1 -1 -2 -1 -1 -1
-3 -2 1 0 1 1 -1 -2 -1 0 0 -1 -5 -5 -4 -1 -0 2 3 0 -0 1 -1 -1 1 1 1 -0 3 1 -0 1 1 1 1 -2 -1 -0 -1 -2 -2 -2 -1
-3 -2 3 4 1 -1 1 1 -1 -1 0 -0 -4 -5 -3 -1 -7 -7 3 3 0 -3 0 -1 -0 1 1 1 2 1 1 2 2 0 -1 -0 -1 -2 -2 -2 -1 -1 -2
1 1 -1 -1 5 1 0 1 1 -0 1 1 1 -0 -0 -0 2 3 2 -2 -3 -1 -1 -1 -0 0 2 1 0 2 2 2 -0 -1 -0 -1 1 -3 -2 -2 -3 -2 1
-1 1 -1 0 -1 1 0 -1 2 3 -0 0 0 1 1 1 2 0 0 1 -1 1 -0 -1 -0 2 0 2 1 1 2 -0 -0 0 -1 -1 -3 -2 -2 -1 -2 -2 -1
2 0 2 4 4 3 0 3 1 -1 -0 -1 -0 0 0 1 1 -1 -0 1 -0 1 1 0 -1 2 0 -1 1 2 -0 -0 0 -1 -1 -0 -1 -3 -1 -2 -1 -2 -1
0 1 4 1 0 -2 1 -0 -2 0 -0 1 -0 1 3 1 4 2 1 1 0 -1 1 2 1 -0 1 2 1 -0 1 -1 -1 1 -2 -1 -1 -3 -3 -1 -1 -1 -2
-0 4 4 -0 1 1 0 -0 0 -0 1 -0 1 -1 -2 -3 -4 -1 -0 0 0 2 2 0 1 1 2 -1 -2 0 1 0 0 -1 -1 -1 -1 -1 -0 -2 -1 -2 -1
1 1 2 1 -2 2 1 2 1 1 -0 -1 -0 -1 1 0 1 1 1 1 1 1 1 0 1 1 -0 -1 1 1 0 -0 -0 0 -2 -2 -0 -0 -0 -1 -0 -1 -2
1 0 1 1 1 0 1 1 1 1 1 1 0 0 0 0 0 0 1 0 0 1 -1 1 -0 -1 -0 1 1 -0 -2 2 0 -2 -1 0 -0 -0 -0 1 0 0 -1
0 -1 0 -0 -0 -0 -0 -0 -0 1 0 2 2 1 0 -1 -0 0 0 -0 0 -0 0 -1 -1 0 1 -0 -1 -0 1 1 -2 -1 -1 -0 -0 0 1 1 -0 -2 -3
7 2 0 0 -0 0 1 1 1 0 -0 0 1 0 1 0 1 -0 1 1 -1 -1 -0 0 -0 0 1 0 -0 0 0 -1 -1 -1 -0 1 0 -0 0 -1 -1 -2 -1
-0 0 1 0 0 0 -0 -1 -0 1 1 1 0 1 0 0 2 0 -0 -0 0 -0 1 1 2 2 0 -1 -0 -0 0 -0 -1 -1 -1 -1 -0 0 0 -1 -2 -1 -1
Height
5749 5754 5759 5764 5771 5778 5785 5792 5798 5802 5806 5810 5814 5818 5822 5824 5825 5827 5828 5831 5833 5832 5832 5833 5834 5835 5835 5835 5834 5832 5831 5829 5828 5828 5826 5825 5822 5820 5817 5814 5812 5808 5805
5742 5750 5754 5759 5765 5771 5776 5783 5791 5796 5799 5803 5807 5811 5814 5817 5819 5822 5825 5826 5826 5826 5827 5828 5829 5830 5829 5829 5828 5827 5825 5823 5822 5821 5819 5819 5817 5811 5809 5806 5803 5800 5797
5736 5742 5748 5754 5759 5765 5769 5775 5781 5787 5792 5796 5799 5804 5807 5810 5813 5816 5817 5817 5818 5820 5821 5822 5822 5823 5823 5822 5821 5820 5818 5816 5815 5813 5812 5809 5808 5804 5800 5797 5795 5791 5788
5731 5735 5741 5747 5753 5758 5762 5767 5772 5777 5783 5788 5792 5795 5799 5802 5805 5807 5808 5809 5811 5814 5815 5815 5814 5814 5815 5814 5813 5811 5810 5808 5807 5805 5802 5800 5798 5795 5794 5789 5785 5782 5779
5723 5728 5734 5739 5745 5750 5756 5761 5764 5769 5773 5777 5781 5786 5790 5794 5797 5799 5801 5802 5803 5805 5806 5806 5806 5807 5806 5805 5804 5803 5801 5800 5798 5795 5793 5790 5787 5785 5782 5780 5778 5774 5770
5715 5720 5727 5732 5738 5743 5747 5752 5757 5761 5764 5768 5772 5776 5780 5783 5787 5790 5793 5793 5794 5796 5798 5798 5799 5798 5798 5797 5796 5795 5793 5791 5789 5786 5783 5780 5777 5776 5773 5770 5768 5766 5762
5707 5713 5720 5724 5729 5734 5739 5743 5748 5753 5756 5760 5764 5767 5769 5774 5777 5779 5783 5784 5786 5788 5789 5790 5790 5790 5789 5788 5787 5786 5784 5782 5780 5776 5774 5771 5768 5766 5764 5761 5760 5757 5752
5700 5707 5712 5716 5719 5724 5729 5734 5739 5743 5747 5751 5754 5758 5762 5765 5768 5770 5773 5775 5777 5778 5778 5779 5779 5780 5779 5778 5777 5775 5773 5772 5770 5768 5765 5762 5760 5757 5754 5752 5749 5746 5742
5693 5698 5703 5707 5711 5714 5719 5724 5729 5733 5737 5741 5745 5749 5753 5757 5760 5762 5763 5765 5766 5767 5767 5767 5767 5768 5768 5767 5766 5765 5763 5761 5759 5758 5755 5753 5751 5749 5747 5743 5739 5734 5730
5686 5689 5692 5696 5700 5704 5709 5713 5718 5722 5727 5731 5735 5739 5742 5746 5749 5752 5754 5756 5758 5758 5759 5759 5758 5758 5758 5757 5756 5754 5753 5751 5750 5748 5746 5743 5742 5740 5737 5733 5729 5723 5718
5679 5681 5683 5685 5689 5692 5697 5702 5707 5712 5716 5720 5724 5727 5731 5735 5738 5741 5744 5745 5747 5748 5749 5749 5749 5750 5749 5748 5746 5745 5744 5742 5741 5739 5736 5735 5733 5731 5728 5725 5720 5715 5710
5670 5671 5673 5675 5678 5683 5687 5693 5697 5702 5706 5710 5713 5717 5720 5722 5726 5729 5732 5734 5735 5736 5737 5738 5738 5738 5738 5738 5737 5736 5734 5733 5731 5729 5728 5727 5725 5723 5720 5715 5711 5706 5701
5660 5660 5662 5664 5668 5673 5678 5683 5688 5693 5697 5700 5703 5707 5710 5713 5715 5718 5720 5722 5724 5726 5727 5728 5728 5728 5728 5727 5727 5726 5725 5724 5723 5722 5720 5719 5716 5714 5710 5706 5701 5697 5692
5651 5650 5653 5656 5660 5664 5669 5674 5679 5684 5688 5692 5693 5696 5700 5703 5706 5708 5710 5712 5714 5715 5717 5718 5718 5718 5718 5717 5717 5717 5716 5715 5715 5713 5711 5710 5707 5704 5700 5697 5692 5688 5684
5644 5644 5646 5648 5651 5656 5660 5665 5671 5675 5679 5682 5685 5687 5691 5693 5696 5698 5701 5702 5704 5705 5707 5707 5707 5707 5707 5708 5708 5707 5706 5707 5706 5705 5703 5701 5698 5695 5691 5687 5682 5678 5675
5636 5637 5639 5643 5645 5648 5652 5657 5662 5667 5671 5674 5677 5680 5682 5684 5687 5689 5690 5692 5694 5696 5696 5697 5698 5698 5699 5699 5698 5699 5699 5699 5698 5697 5695 5692 5689 5685 5681 5677 5673 5670 5666
5628 5631 5633 5636 5639 5643 5647 5651 5655 5659 5663 5666 5669 5672 5674 5676 5678 5680 5682 5684 5686 5686 5688 5688 5689 5690 5690 5690 5690 5691 5691 5691 5690 5688 5685 5683 5680 5676 5672 5669 5665 5662 5658
5623 5625 5627 5631 5635 5638 5642 5646 5649 5652 5655 5658 5661 5663 5665 5667 5668 5670 5672 5674 5676 5677 5679 5680 5681 5682 5682 5682 5684 5683 5683 5682 5681 5679 5677 5674 5671 5668 5664 5661 5657 5654 5650
5618 5620 5623 5626 5629 5632 5635 5638 5641 5644 5647 5650 5652 5654 5656 5658 5660 5662 5664 5666 5667 5669 5671 5672 5673 5674 5675 5676 5676 5676 5675 5674 5672 5670 5668 5666 5663 5660 5656 5653 5649 5646 5642
5615 5615 5617 5620 5622 5625 5628 5631 5634 5636 5639 5642 5644 5645 5647 5650 5652 5654 5656 5658 5660 5662 5663 5664 5666 5667 5668 5669 5669 5668 5667 5665 5664 5663 5660 5657 5654 5651 5648 5645 5641 5637 5634
5612 5613 5614 5615 5617 5619 5621 5624 5627 5629 5632 5634 5636 5638 5640 5642 5645 5647 5649 5651 5653 5655 5656 5658 5659 5661 5662 5662 5661 5660 5659 5658 5656 5653 5651 5649 5646 5644 5641 5637 5634 5629 5625
5608 5609 5610 5612 5613 5614 5616 5618 5620 5623 5625 5627 5629 5631 5633 5635 5638 5640 5642 5644 5646 5648 5650 5652 5654 5654 5654 5654 5653 5652 5651 5650 5647 5645 5643 5641 5639 5636 5633 5629 5625 5621 5617
5603 5605 5606 5607 5608 5609 5611 5612 5614 5616 5619 5621 5623 5625 5627 5628 5631 5633 5635 5638 5640 5642 5644 5646 5646 5647 5646 5646 5646 5645 5643 5641 5640 5638 5636 5633 5631 5628 5625 5621 5617 5613 5608
5600 5602 5603 5603 5604 5604 5606 5607 5609 5611 5614 5616 5618 5619 5621 5623 5625 5628 5630 5632 5634 5636 5638 5639 5639 5639 5640 5639 5638 5637 5635 5634 5633 5630 5627 5625 5623 5620 5617 5613 5608 5603 5598
5598 5599 5599 5600 5600 5601 5602 5603 5605 5607 5609 5611 5613 5614 5615 5618 5620 5622 5625 5627 5629 5630 5631 5632 5632 5632 5632 5632 5630 5630 5629 5627 5625 5622 5620 5618 5615 5611 5608 5603 5599 5594 5588
5593 5595 5595 5596 5597 5597 5598 5599 5600 5602 5603 5605 5607 5609 5611 5613 5615 5617 5619 5620 5621 5623 5624 5624 5625 5625 5625 5625 5624 5623 5621 5619 5617 5615 5612 5609 5606 5603 5599 5594 5590 5584 5579